Diretta Meteo Pisa-S Giusto, Italiamartedì 22 agosto ore 04:45

Mappa
Sereno 20 °C Sereno 24 Ore: T.min 20 T.max 31
Ponente Est/Sud-Est Km/h 14.8 Punto di rugiada: 8 °C Umidità: 45% Visibilità: 10 Km
Il sole sorge alle: 06:30 Il sole tramonta alle: 20:12
22 Agosto 2017 04:45 tempo osservato: Sereno Sereno 20 45 1018 vento: Nord E/SE 14.8
22 Agosto 2017 04:15 tempo osservato: Sereno Sereno 20 45 1018 vento: Nord E/SE 9.3
22 Agosto 2017 03:45 tempo osservato: Sereno Sereno 21 43 1018 vento: Nord E/SE 7.4
22 Agosto 2017 03:15 tempo osservato: Sereno Sereno 21 43 1018 vento: Nord SE 7.4
22 Agosto 2017 02:45 tempo osservato: Sereno Sereno 24 33 1018 vento: Nord N 5.5
22 Agosto 2017 02:15 tempo osservato: Sereno Sereno 24 33 1018 vento: Nord N 5.5
22 Agosto 2017 01:45 tempo osservato: Sereno Sereno 24 33 1018 vento: Nord E 9.3
22 Agosto 2017 01:15 tempo osservato: Sereno Sereno 23 38 1018 vento: Nord E/NE 14.8
22 Agosto 2017 00:45 tempo osservato: Sereno Sereno 22 43 1018 vento: Nord E 16.7
22 Agosto 2017 00:15 tempo osservato: Sereno Sereno 22 46 1018 vento: Nord E 13
21 Agosto 2017 23:45 tempo osservato: Sereno Sereno 22 56 1018 vento: Nord E/SE 13
21 Agosto 2017 23:15 tempo osservato: Sereno Sereno 23 53 1018 vento: Nord E/SE 11.1
21 Agosto 2017 22:45 tempo osservato: Sereno Sereno 24 60 1018 vento: Nord SE 11.1
21 Agosto 2017 22:15 tempo osservato: Sereno Sereno 24 69 1017 vento: Nord E 11.1
21 Agosto 2017 21:45 tempo osservato: Sereno Sereno 25 73 1017 vento: Nord NE 7.4
21 Agosto 2017 21:15 tempo osservato: Sereno Sereno 25 69 1017 vento: Nord N 11.1
21 Agosto 2017 20:45 tempo osservato: Sereno Sereno 25 65 1017 vento: Nord N/NO 9.3
21 Agosto 2017 20:15 tempo osservato: Sereno Sereno 26 57 1016 vento: Nord NO 11.1
21 Agosto 2017 19:45 tempo osservato: Sereno Sereno 27 50 1016 vento: Nord NO 14.8
21 Agosto 2017 19:15 tempo osservato: Sereno Sereno 27 47 1016 vento: Nord NO 14.8
21 Agosto 2017 18:45 tempo osservato: Sereno Sereno 28 45 1016 vento: Nord NO 20.3
21 Agosto 2017 18:15 tempo osservato: Sereno Sereno 28 45 1016 vento: Nord NO 22.2
21 Agosto 2017 17:45 tempo osservato: Sereno Sereno 29 42 1016 vento: Nord NO 22.2
21 Agosto 2017 17:15 tempo osservato: Poco Nuvoloso Poco Nuvoloso 29 39 1016 vento: Nord O/NO 22.2
21 Agosto 2017 16:45 tempo osservato: Poco Nuvoloso Poco Nuvoloso 29 39 1016 vento: Nord NO 22.2
21 Agosto 2017 16:15 tempo osservato: Poco Nuvoloso Poco Nuvoloso 30 37 1016 vento: Nord NO 25.9
21 Agosto 2017 15:45 tempo osservato: Poco Nuvoloso Poco Nuvoloso 31 33 1016 vento: Nord NO 22.2
21 Agosto 2017 15:15 tempo osservato: Poco Nuvoloso Poco Nuvoloso 31 33 1016 vento: Nord NO 24
21 Agosto 2017 14:45 tempo osservato: Poco Nuvoloso Poco Nuvoloso 31 35 1016 vento: Nord O/NO 14.8
21 Agosto 2017 14:15 tempo osservato: Nuvoloso Nuvoloso 31 33 1017 vento: Nord N 5.5
21 Agosto 2017 13:45 tempo osservato: Nuvoloso Nuvoloso 31 33 1017 vento: Nord E 14.8
21 Agosto 2017 13:15 tempo osservato: Nuvoloso Nuvoloso 30 35 1017 vento: Nord E/NE 11.1
21 Agosto 2017 12:45 tempo osservato: Poco Nuvoloso Poco Nuvoloso 30 35 1018 vento: Nord E 11.1
21 Agosto 2017 12:15 tempo osservato: Sereno Sereno 29 39 1018 vento: Nord E 13
21 Agosto 2017 11:45 tempo osservato: Poco Nuvoloso Poco Nuvoloso 29 39 1018 vento: Nord E/NE 20.3
21 Agosto 2017 11:15 tempo osservato: Sereno Sereno 28 42 1019 vento: Nord E/NE 18.5
21 Agosto 2017 10:45 tempo osservato: Sereno Sereno 28 45 1019 vento: Nord E/NE 22.2
21 Agosto 2017 10:15 tempo osservato: Sereno Sereno 26 44 1019 vento: Nord E 22.2
21 Agosto 2017 09:45 tempo osservato: Sereno Sereno 26 47 1019 vento: Nord E 18.5
21 Agosto 2017 09:15 tempo osservato: Sereno Sereno 25 53 1018 vento: Nord E/NE 22.2
21 Agosto 2017 08:45 tempo osservato: Sereno Sereno 24 53 1019 vento: Nord E 13
21 Agosto 2017 08:15 tempo osservato: Sereno Sereno 22 64 1019 vento: Nord N 5.5
21 Agosto 2017 07:45 tempo osservato: Sereno Sereno 20 64 1018 vento: Nord S 9.3
21 Agosto 2017 07:15 tempo osservato: Sereno Sereno 20 59 1018 vento: Nord N 3.7
21 Agosto 2017 06:45 tempo osservato: Sereno Sereno 20 64 1018 vento: Nord E/SE 14.8
21 Agosto 2017 06:15 tempo osservato: Sereno Sereno 20 59 1017 vento: Nord E/SE 18.5
21 Agosto 2017 05:45 tempo osservato: Sereno Sereno 20 59 1017 vento: Nord E/SE 18.5